Location: Commenchon
(49.6411°N, 3.1571°E)
Time: 15:49:46
(UTC+00:00)

ISS - Pass Details

Date: 15 May 2026
Orbit: 413 x 422 km, 51.6° (Epoch: 10 June)

Event Time Altitude Azimuth Distance (km) Brightness Sun altitude
Rises 21:21:06 0° 281° (W) 2,351 0.8 -14.4°
Reaches altitude 10° 21:23:13 10° 285° (WNW) 1,489 -0.2 -14.6°
Maximum altitude 21:26:32 62° 7° (N) 470 -3.4 -14.9°
Enters shadow 21:29:08 15° 87° (E) 1,207 -1.7 -15.1°
